Location: Siratepeler Tepesi
(39.1042°N, 32.0781°E)
Time: 11:36:24
(UTC+00:00)

Cosmos 2184 Rocket - Pass Details

Date: 11 April 2026
Orbit: 957 x 1002 km, 82.9° (Epoch: 14 May)

Event Time Altitude Azimuth Distance (km) Brightness Sun altitude
Rises 16:55:37 0° 171° (S) 3,709 6.8 -6.6°
Reaches altitude 10° 16:58:11 10° 167° (SSE) 2,764 6.1 -7.1°
Maximum altitude 17:04:21 55° 92° (E) 1,192 4.2 -8.2°
Drops below altitude 10° 17:10:32 10° 16° (NNE) 2,773 6.4 -9.3°
Sets 17:13:06 0° 12° (NNE) 3,722 7.1 -9.8°
